PABR

Details ICAO PABR (BRW)
Name WILEY POST WILL ROGERS MEM
Region USA (Alaska)
Timezone America/Anchorage (UTC-8.0)
Plans Departing 94
Arriving 107
Stats Elevation 44 ft / 13 m (AMSL)
Location 71.284660° -156.768746°
Runways 1
Magnetic Variation 14.290° E
Sunrise Unknown / Unknown
Sunset Unknown / Unknown
Advertisement - Login to hide

Runways

ID Width Length Bearing (true) Bearing (mag) Surface Threshold Offset Overrun Length
07 151 ft / 46 m 7,107 ft / 2,166 m 91.11° 76.82° Asphalt 0 ft / 0 m 0 ft / 0 m
25 151 ft / 46 m 7,107 ft / 2,166 m 271.17° 256.88° Asphalt 0 ft / 0 m 0 ft / 0 m

Approach Navaids

Runway Type Ident Frequency Range Bearing (true) Bearing (mag) Slope Elevation
07 Localiser IBRW 110.50 MHz 18 nm / 33 km 91.13° 76.84° - 44 ft / 13 m (AMSL)
07 Glidescope IBRW 110.50 MHz 10 nm / 19 km 91.14° 76.85° 3.00° 41 ft / 12 m (AMSL)
07 DME IBRW 109.10 MHz 18 nm / 33 km - - - 44 ft / 13 m (AMSL)

Map

Weather


0- 5 10 15 20 25 30 35+ Temperature / ° C

Clouds and Precipitation
Forecast for 2018-05-21 06:00 UTC. Updated 26 minutes ago

Ground ~20,000 ft ~40,000 ft Winds

METAR

PABR 210320Z 07015KT 10SM OVC010 M05/M07 A2998 RMK AO2 T10501072 $

TAF

PABR 210240Z 2103/2124 07016KT P6SM OVC010 FM210400 07016KT P6SM OVC007 FM211000 07015KT 2SM BR OVC007 FM212000 06019KT 5SM BR OVC007

Frequencies

Recorded 132.15 MHz ASOS
Unicom 123.60 MHz CTAF
Warning: Do not use this data for real-world aviation or navigation. No guarantee of current accuracy is given.